Location: Pebble Beach Sunset Acres
(33.0837°N, 96.4508°W)
Time: 01:06:35
(UTC+00:00)

DELTA 2 R/B (1) - Pass Details

Date: 03 July 2022
Orbit: 790 x 803 km, 39.6° (Epoch: 15 August)

Event Time Altitude Azimuth Distance (km) Brightness Sun altitude
Rises 02:17:16 0° 293° (WNW) 3,292 8.9 -7.8°
Reaches altitude 10° 02:19:45 10° 293° (WNW) 2,362 7.6 -8.2°
Maximum altitude 02:25:21 84° 206° (SSW) 805 3.6 -9.1°
Enters shadow 02:30:27 13° 119° (ESE) 2,186 5.2 -10.0°
